Earlysville, VA

5:48 PM EDT on July 28, 2016 (GMT -0400)
Charlottesville-Albemarle

Weather History for KCHO - November, 2009

Change the Weather History Date:

Thursday, November 19, 2009

  Actual Average Record
Temperature  
Mean Temperature 54 °F 46 °F  
Max Temperature 57 °F 56 °F 77 °F (1953)
Min Temperature 51 °F 36 °F 9 °F (1926)
Degree Days  
Heating Degree Days 11 19  
Month to date heating degree days 258 308  
Since 1 July heating degree days 583 657  
Cooling Degree Days 0 0  
Month to date cooling degree days 0 0  
Year to date cooling degree days 975 1034  
Growing Degree Days 4 (Base 50)    
Moisture  
Dew Point 53 °F    
Average Humidity 97    
Maximum Humidity 100    
Minimum Humidity 93    
Precipitation  
Precipitation 2.44 in 0.12 in 2.44 in (2009)
Month to date precipitation 6.04 2.43  
Year to date precipitation 37.14 38.16  
Sea Level Pressure  
Sea Level Pressure 30.15 in    
Wind  
Wind Speed 4 mph (North)    
Max Wind Speed 14 mph    
Max Gust Speed 23 mph    
Visibility 3 miles    
Events Fog , Rain , Thunderstorm    
T = Trace of Precipitation, MM = Missing Value Source: NWS Daily Summary

Daily Weather History Graph

Daily Weather History Graph

Search for Another Location

Airport or City:

Trip Planner

Search our weather history database for the weather conditions in past years. The results will help you decide how hot, cold, wet, or windy it might be!

Date:

Astronomy

Nov. 19, 2009 Rise Set
Actual Time 6:59 AM EST 4:58 PM EST
Civil Twilight 6:30 AM EST 5:27 PM EST
Nautical Twilight 5:58 AM EST 5:59 PM EST
Astronomical Twilight 5:27 AM EST 6:30 PM EST
Moon 9:46 AM EST (11/19) 7:11 PM EST (11/19)
Length of Visible Light 10h 56m
Length of Day
9h 59m
Waxing Crescent, 8% of the Moon is Illuminated
Nov 19
Waxing Crescent
Nov 24
First Quarter
Dec 2
Full
Dec 8
Last Quarter
Dec 16
New

Hourly Weather History & Observations

Time (EST) Temp. Dew Point Humidity Pressure Visibility Wind Dir Wind Speed Gust Speed Precip Events Conditions
12:17 AM 51.8 °F 50.0 °F 94% 30.26 in 6.0 mi NNE 3.5 mph - 0.02 in Rain Rain
12:53 AM 52.0 °F 50.0 °F 93% 30.24 in 8.0 mi NNE 4.6 mph - 0.02 in Rain Light Rain
1:40 AM 51.8 °F 50.0 °F 94% 30.23 in 2.5 mi NNE 3.5 mph - 0.03 in Rain Rain
1:49 AM 51.8 °F 50.0 °F 94% 30.23 in 2.5 mi NNE 4.6 mph - 0.04 in Rain Light Rain
1:53 AM 51.1 °F 50.0 °F 96% 30.23 in 2.5 mi Variable 3.5 mph - 0.05 in Rain Rain
2:38 AM 51.8 °F 50.0 °F 94% 30.23 in 3.0 mi Calm Calm - 0.15 in Rain Light Rain
2:53 AM 51.1 °F 50.0 °F 96% 30.23 in 3.0 mi North 5.8 mph - 0.18 in Rain Rain
3:07 AM 51.8 °F 50.0 °F 94% 30.23 in 2.5 mi North 4.6 mph - 0.03 in Rain Rain
3:20 AM 51.8 °F 50.0 °F 94% 30.23 in 3.0 mi NNE 3.5 mph - 0.06 in Rain Rain
3:27 AM 51.8 °F 50.0 °F 94% 30.22 in 1.8 mi North 3.5 mph - 0.11 in Rain Heavy Rain
3:38 AM 51.8 °F 50.0 °F 94% 30.22 in 2.5 mi NNE 3.5 mph - 0.14 in Rain Rain
3:53 AM 51.1 °F 50.0 °F 96% 30.22 in 4.0 mi North 3.5 mph - 0.18 in Rain Light Rain
4:03 AM 51.8 °F 50.0 °F 94% 30.22 in 1.8 mi North 3.5 mph - 0.03 in Rain Rain
4:17 AM 51.8 °F 50.0 °F 94% 30.22 in 3.0 mi North 3.5 mph - 0.07 in Rain Light Rain
4:53 AM 51.1 °F 50.0 °F 96% 30.19 in 4.0 mi NNE 4.6 mph - 0.09 in Rain Rain
5:50 AM 51.8 °F 50.0 °F 94% 30.20 in 2.5 mi NNE 3.5 mph - 0.04 in Rain Rain
5:53 AM 51.1 °F 50.0 °F 96% 30.19 in 2.5 mi NNE 5.8 mph - 0.05 in Rain Heavy Rain
6:41 AM 51.8 °F 51.8 °F 100% 30.21 in 2.5 mi NNE 11.5 mph - 0.05 in Rain Light Rain
7:53 AM 52.0 °F 51.1 °F 97% 30.19 in 2.5 mi North 3.5 mph - 0.05 in Rain Light Rain
8:04 AM 51.8 °F 51.8 °F 100% 30.19 in 2.5 mi North 4.6 mph - 0.00 in Rain Light Rain
8:25 AM 51.8 °F 51.8 °F 100% 30.23 in 1.0 mi NW 13.8 mph 23.0 mph 0.35 in Thunderstorm Thunderstorm
8:30 AM 51.8 °F 51.8 °F 100% 30.17 in 2.5 mi NW 13.8 mph 23.0 mph 0.61 in Rain Heavy Rain
8:37 AM 51.8 °F 51.8 °F 100% 30.20 in 2.5 mi NNE 11.5 mph - 0.62 in Rain Rain
8:53 AM 52.0 °F 52.0 °F 100% 30.20 in 2.5 mi NNE 11.5 mph - 0.71 in Rain Rain
8:56 AM 51.8 °F 51.8 °F 100% 30.21 in 3.0 mi Calm Calm - 0.00 in Rain Rain
9:03 AM 51.8 °F 51.8 °F 100% 30.20 in 2.5 mi NNE 4.6 mph - 0.05 in Rain Heavy Rain
9:53 AM 53.1 °F 52.0 °F 96% 30.18 in 2.5 mi North 5.8 mph - 0.40 in Rain Heavy Rain
10:00 AM 53.6 °F 51.8 °F 94% 30.20 in 1.0 mi Variable 4.6 mph - 0.04 in Rain Heavy Rain
10:04 AM 53.6 °F 51.8 °F 94% 30.20 in 0.8 mi Variable 3.5 mph - 0.08 in Rain Heavy Rain
10:13 AM 53.6 °F 51.8 °F 94% 30.18 in 1.2 mi West 6.9 mph - 0.12 in Rain Rain
10:39 AM 53.6 °F 53.6 °F 100% 30.18 in 3.0 mi West 6.9 mph - 0.21 in Rain Light Rain
10:53 AM 53.1 °F 53.1 °F 100% 30.17 in 1.5 mi North 8.1 mph - 0.28 in Rain Heavy Rain
10:58 AM 53.6 °F 53.6 °F 100% 30.17 in 0.8 mi Variable 3.5 mph - 0.05 in Rain Heavy Rain
11:03 AM 53.6 °F 53.6 °F 100% 30.16 in 0.8 mi NNE 4.6 mph - 0.11 in Rain Heavy Rain
11:11 AM 53.6 °F 53.6 °F 100% 30.16 in 1.2 mi NNW 3.5 mph - 0.13 in Rain Rain
11:20 AM 53.6 °F 53.6 °F 100% 30.16 in 2.0 mi NNE 3.5 mph - 0.14 in Rain Rain
11:27 AM 53.6 °F 53.6 °F 100% 30.16 in 1.0 mi Calm Calm - 0.16 in Rain Rain
11:46 AM 55.4 °F 53.6 °F 94% 30.15 in 2.0 mi Calm Calm - 0.19 in Rain Rain
11:53 AM 55.0 °F 54.0 °F 96% 30.15 in 1.5 mi Calm Calm - 0.20 in Rain Light Rain
12:26 PM 55.4 °F 55.4 °F 100% 30.13 in 2.0 mi North 9.2 mph - 0.05 in Rain Light Rain
12:36 PM 55.4 °F 55.4 °F 100% 30.13 in 9.0 mi North 9.2 mph - 0.05 in   Overcast
12:44 PM 55.4 °F 55.4 °F 100% 30.12 in 6.0 mi North 9.2 mph - 0.05 in   Overcast
12:53 PM 55.9 °F 55.0 °F 97% 30.12 in 2.0 mi North 9.2 mph - 0.05 in   Overcast
1:09 PM 55.4 °F 55.4 °F 100% 30.11 in 2.0 mi Calm Calm - N/A   Overcast
1:30 PM 55.4 °F 55.4 °F 100% 30.10 in 2.0 mi Calm Calm - N/A   Overcast
1:38 PM 55.4 °F 55.4 °F 100% 30.10 in 2.0 mi Calm Calm - 0.00 in Rain Light Rain
1:53 PM 55.9 °F 55.0 °F 97% 30.09 in 2.0 mi Calm Calm - 0.00 in   Overcast
2:21 PM 55.4 °F 55.4 °F 100% 30.09 in 1.8 mi Calm Calm - 0.01 in Rain Light Rain
2:53 PM 55.9 °F 55.9 °F 100% 30.08 in 2.0 mi Calm Calm - 0.02 in Rain Light Rain
3:02 PM 55.4 °F 55.4 °F 100% 30.09 in 2.0 mi Calm Calm - 0.01 in Rain Light Rain
3:53 PM 57.0 °F 55.9 °F 96% 30.08 in 2.5 mi Calm Calm - 0.05 in   Overcast
4:48 PM 55.4 °F 55.4 °F 100% 30.08 in 1.5 mi Calm Calm - 0.01 in Rain Light Rain
4:53 PM 55.9 °F 55.9 °F 100% 30.08 in 1.5 mi Calm Calm - 0.01 in Rain Light Rain
5:51 PM 55.4 °F 55.4 °F 100% 30.08 in 3.0 mi Calm Calm - 0.02 in   Overcast
5:53 PM 55.9 °F 55.0 °F 97% 30.08 in 3.0 mi Calm Calm - 0.02 in   Overcast
6:12 PM 55.4 °F 55.4 °F 100% 30.08 in 2.5 mi Calm Calm - N/A   Overcast
6:25 PM 55.4 °F 55.4 °F 100% 30.08 in 1.0 mi Calm Calm - 0.00 in Rain Light Rain
6:34 PM 55.4 °F 55.4 °F 100% 30.08 in 3.0 mi Calm Calm - 0.00 in Rain Light Rain
6:45 PM 55.4 °F 55.4 °F 100% 30.08 in 1.8 mi Calm Calm - 0.00 in Rain Light Rain
6:53 PM 55.9 °F 55.9 °F 100% 30.08 in 0.8 mi South 4.6 mph - 0.00 in   Overcast
7:53 PM 55.0 °F 55.0 °F 100% 30.06 in 0.5 mi Calm Calm - N/A Fog Fog
8:14 PM 55.4 °F 53.6 °F 94% 30.07 in 0.5 mi Calm Calm - N/A Fog Fog
8:22 PM 55.4 °F 55.4 °F 100% 30.07 in 0.5 mi Calm Calm - N/A Fog Fog
8:53 PM 55.0 °F 55.0 °F 100% 30.06 in 0.8 mi Calm Calm - 0.01 in Rain Light Rain
9:06 PM 55.4 °F 55.4 °F 100% 30.07 in 1.8 mi Calm Calm - 0.00 in   Overcast
9:11 PM 55.4 °F 55.4 °F 100% 30.06 in 3.0 mi Calm Calm - 0.00 in Rain Light Rain
9:24 PM 55.4 °F 55.4 °F 100% 30.06 in 1.5 mi Calm Calm - 0.00 in Rain Light Rain
9:45 PM 55.4 °F 53.6 °F 94% 30.07 in 2.5 mi Calm Calm - 0.00 in   Overcast
9:53 PM 55.0 °F 54.0 °F 96% 30.06 in 5.0 mi Variable 3.5 mph - 0.00 in   Overcast
10:53 PM 53.1 °F 53.1 °F 100% 30.05 in 10.0 mi WSW 3.5 mph - N/A   Partly Cloudy
11:53 PM 54.0 °F 52.0 °F 93% 30.05 in 10.0 mi SW 3.5 mph - N/A   Clear